Tracking 19846 objects as of 20-Sep-2019
HD Live streaming from Space Station
objects crossing your sky now

COSMOS 1627

Track COSMOS 1627 now!
10-day predictions
COSMOS 1627 is classified as:


NORAD ID: 15505
Int'l Code: 1985-011A
Perigee: 960.0 km
Apogee: 1,022.3 km
Inclination: 82.9 °
Period: 104.8 minutes
Semi major axis: 7362 km
RCS: 3.2863 m2 (large)
Launch date: February 1, 1985
Source: Commonwealth of Independent States (former USSR) (CIS)
Launch site: PLESETSK MISSILE AND SPACE COMPLEX (PKMTR)
aabbcc
Your satellite tracking list
Your tracking list is empty




NASA's NSSDC Master Catalog

Two Line Element Set (TLE):
1 15505U 85011A   19262.64414361  .00000019  00000-0  37310-5 0  9999
2 15505  82.9182  75.2394 0042319  10.2665  35.3163 13.74353008736985
Source of the keplerian elements: AFSPC